Location: Newark
(48.8833°N, 0.9236°W)
Time: 11:19:05
(UTC+00:00)

Tiros 1 despin weight - Pass Details

Date: 21 November 2019
Orbit: 594 x 642 km, 48.2° (Epoch: 10 December)

Event Time Altitude Azimuth Distance (km) Brightness Sun altitude
Rises 13:04:50 0° 234° (SW) 2,820 ? 19.2°
Reaches altitude 10° 13:07:11 10° 228° (SW) 1,921 ? 19.1°
Maximum altitude 13:11:22 45° 156° (SSE) 814 ? 18.8°
Drops below altitude 10° 13:15:36 10° 84° (E) 1,938 ? 18.6°
Sets 13:17:58 0° 78° (ENE) 2,849 ? 18.4°
